contact:dominique.lefevre@mio.osupytheas.fr, maurice.libes@osupytheas.fr, didier.mallarino@osupytheas.fr
Project:EMSO http://www.emso-fr.org/EMSO-France
Depth: 2436.0 m
Title:EMSO Ligure Ouest : Data MII capteur AQUADOPP
Date,Latitude,Longitude,X_East,Y_North,Z_Up,Amplitude_X,Amplitude_Y,Amplitude_Z,Batterie,SoundSpeed,Heading,Pitch,Roll,Pressure,TIS,Speed,Direction
, degrees North, degrees East, m.s-1, m.s-1,m.s-1, 1, 1, 1, Volt, m.s-1, degree, degree, degree, dbar, degree_C, m.s-1, degree
2021-02-01T00:04:03,42.805,6.029,-0.037,-0.007,-0.007,108.0,110.0,104.0,13.4,1505.3,327.2,-0.7,1.8,2470.382,13.32,0.037,259.3
2021-02-01T00:07:03,42.805,6.029,-0.037,0.015,-0.013,107.0,112.0,104.0,13.3,1505.3,328.5,-0.7,1.9,2470.385,13.33,0.039,292.1
2021-02-01T00:10:03,42.805,6.029,-0.031,-0.005,-0.058,108.0,109.0,103.0,13.3,1505.3,328.4,-0.8,1.8,2470.358,13.33,0.031,260.8
2021-02-01T00:13:03,42.805,6.029,-0.021,-0.013,-0.044,108.0,111.0,105.0,13.4,1505.3,328.6,-0.7,1.9,2470.368,13.33,0.024,238.2
2021-02-01T00:16:03,42.805,6.029,-0.015,-0.001,-0.011,107.0,109.0,105.0,13.4,1505.3,324.3,-0.7,1.8,2470.348,13.33,0.015,266.2
2021-02-01T00:19:03,42.805,6.029,-0.021,-0.004,0.019,109.0,110.0,103.0,13.3,1505.4,324.9,-0.7,1.8,2470.341,13.34,0.021,259.2
2021-02-01T00:22:03,42.805,6.029,-0.035,-0.014,-0.017,108.0,111.0,104.0,13.3,1505.4,324.6,-0.7,1.8,2470.319,13.34,0.037,248.2
2021-02-01T00:25:03,42.805,6.029,-0.002,0.024,0.001,109.0,109.0,103.0,13.4,1505.4,324.3,-0.7,1.8,2470.33,13.34,0.024,355.2
2021-02-01T00:28:03,42.805,6.029,-0.024,-0.002,-0.026,108.0,110.0,103.0,13.4,1505.4,323.2,-0.7,1.8,2470.348,13.34,0.024,265.2
2021-02-01T00:31:03,42.805,6.029,-0.03,-0.01,-0.007,108.0,111.0,104.0,13.4,1505.4,325.5,-0.7,1.8,2470.33,13.34,0.031,251.6
2021-02-01T00:34:03,42.805,6.029,-0.041,-0.008,-0.035,109.0,110.0,105.0,13.4,1505.4,326.9,-0.7,1.8,2470.324,13.34,0.041,259.0
2021-02-01T00:37:03,42.805,6.029,-0.017,-0.026,-0.015,109.0,111.0,103.0,13.4,1505.4,323.6,-0.7,1.8,2470.32,13.34,0.031,213.2
2021-02-01T00:40:03,42.805,6.029,-0.012,-0.007,-0.037,108.0,110.0,105.0,13.3,1505.4,326.1,-0.7,1.8,2470.319,13.34,0.013,239.7
2021-02-01T00:43:03,42.805,6.029,0.014,0.006,-0.014,108.0,111.0,104.0,13.4,1505.4,324.0,-0.7,1.8,2470.303,13.34,0.015,66.8
2021-02-01T00:46:03,42.805,6.029,-0.012,0.005,-0.027,108.0,109.0,104.0,13.4,1505.4,325.6,-0.7,1.9,2470.28,13.34,0.013,292.6
2021-02-01T00:49:03,42.805,6.029,-0.046,-0.007,-0.036,109.0,111.0,104.0,13.4,1505.4,327.4,-0.7,1.8,2470.35,13.34,0.046,261.3
2021-02-01T00:52:03,42.805,6.029,-0.012,-0.021,-0.021,107.0,110.0,105.0,13.4,1505.4,327.5,-0.7,1.8,2470.337,13.34,0.024,209.7
2021-02-01T00:55:03,42.805,6.029,-0.041,-0.007,-0.013,108.0,110.0,105.0,13.3,1505.4,326.8,-0.7,1.8,2470.336,13.34,0.041,260.3
2021-02-01T00:58:03,42.805,6.029,-0.023,-0.014,0.004,108.0,110.0,103.0,13.4,1505.4,324.0,-0.7,1.8,2470.302,13.34,0.026,238.7
2021-02-01T01:04:03,42.805,6.029,-0.025,-0.003,-0.012,109.0,112.0,106.0,13.3,1505.3,324.8,-0.7,1.8,2470.328,13.32,0.025,263.2
2021-02-01T01:07:03,42.805,6.029,0.015,-0.009,0.001,107.0,111.0,103.0,13.4,1505.3,324.5,-0.7,1.8,2470.35,13.32,0.017,121.0
2021-02-01T01:10:03,42.805,6.029,-0.023,-0.004,-0.029,108.0,112.0,104.0,13.4,1505.3,325.8,-0.7,1.8,2470.331,13.33,0.023,260.1
2021-02-01T01:13:03,42.805,6.029,-0.004,-0.017,-0.039,111.0,111.0,105.0,13.3,1505.3,327.6,-0.7,1.8,2470.3,13.33,0.017,193.2
2021-02-01T01:16:03,42.805,6.029,-0.016,-0.015,0.003,108.0,112.0,104.0,13.4,1505.3,327.0,-0.7,1.8,2470.309,13.33,0.021,226.9
2021-02-01T01:19:03,42.805,6.029,-0.01,0.0,0.052,108.0,110.0,104.0,13.4,1505.3,323.0,-0.7,1.8,2470.3,13.33,0.01,270.0
2021-02-01T01:22:03,42.805,6.029,-0.026,-0.016,-0.004,108.0,111.0,105.0,13.4,1505.3,323.6,-0.7,1.8,2470.308,13.33,0.03,238.4
2021-02-01T01:25:03,42.805,6.029,-0.023,-0.005,-0.01,108.0,111.0,105.0,13.4,1505.3,325.1,-0.7,1.8,2470.266,13.33,0.023,257.7
2021-02-01T01:28:03,42.805,6.029,-0.022,-0.021,-0.002,109.0,111.0,104.0,13.3,1505.3,325.7,-0.7,1.8,2470.33,13.33,0.03,226.3
2021-02-01T01:31:03,42.805,6.029,0.005,-0.008,0.006,108.0,111.0,105.0,13.3,1505.3,326.0,-0.7,1.8,2470.288,13.33,0.009,148.0
2021-02-01T01:34:03,42.805,6.029,-0.027,-0.021,0.009,109.0,111.0,105.0,13.4,1505.3,326.0,-0.7,1.8,2470.254,13.33,0.034,232.1
2021-02-01T01:37:03,42.805,6.029,-0.034,-0.009,-0.007,108.0,111.0,105.0,13.3,1505.3,326.4,-0.7,1.9,2470.279,13.33,0.035,255.2
2021-02-01T01:40:03,42.805,6.029,-0.032,-0.009,0.021,110.0,110.0,104.0,13.4,1505.3,325.7,-0.7,1.8,2470.285,13.33,0.033,254.3
2021-02-01T01:43:03,42.805,6.029,0.019,-0.006,-0.008,108.0,111.0,103.0,13.4,1505.3,325.4,-0.7,1.8,2470.265,13.33,0.019,107.5
2021-02-01T01:46:03,42.805,6.029,0.003,-0.036,-0.018,108.0,111.0,104.0,13.3,1505.4,324.7,-0.7,1.8,2470.284,13.34,0.036,175.2
2021-02-01T01:49:03,42.805,6.029,-0.023,0.002,0.002,108.0,112.0,104.0,13.4,1505.4,325.7,-0.7,1.8,2470.254,13.34,0.023,275.0
2021-02-01T01:52:03,42.805,6.029,-0.005,-0.025,-0.023,106.0,110.0,104.0,13.3,1505.3,326.4,-0.7,1.8,2470.284,13.33,0.025,191.3
2021-02-01T01:55:03,42.805,6.029,-0.002,-0.013,-0.002,108.0,111.0,104.0,13.4,1505.3,324.1,-0.7,1.8,2470.293,13.33,0.013,188.7
2021-02-01T01:58:03,42.805,6.029,-0.008,-0.015,-0.012,108.0,110.0,105.0,13.4,1505.3,324.6,-0.7,1.8,2470.274,13.33,0.017,208.1
2021-02-01T02:04:03,42.805,6.029,-0.025,-0.022,-0.051,109.0,111.0,104.0,13.3,1505.3,324.3,-0.7,1.8,2470.296,13.31,0.033,228.7
2021-02-01T02:07:03,42.805,6.029,-0.012,0.0,0.006,109.0,111.0,105.0,13.4,1505.3,324.0,-0.7,1.8,2470.313,13.32,0.012,270.0
2021-02-01T02:10:03,42.805,6.029,-0.036,-0.018,-0.032,109.0,111.0,104.0,13.4,1505.3,326.4,-0.7,1.8,2470.295,13.32,0.04,243.4
2021-02-01T02:13:03,42.805,6.029,-0.033,-0.006,0.003,108.0,112.0,105.0,13.3,1505.3,327.3,-0.7,1.8,2470.314,13.33,0.033,259.7
2021-02-01T02:16:03,42.805,6.029,-0.004,-0.019,-0.01,109.0,112.0,104.0,13.3,1505.3,323.7,-0.7,1.8,2470.302,13.33,0.019,191.9
2021-02-01T02:19:03,42.805,6.029,-0.041,-0.029,-0.031,109.0,111.0,105.0,13.4,1505.3,326.5,-0.7,1.8,2470.28,13.33,0.05,234.7
2021-02-01T02:22:03,42.805,6.029,-0.02,-0.018,-0.029,107.0,112.0,105.0,13.3,1505.3,324.0,-0.7,1.8,2470.273,13.33,0.026,228.0
2021-02-01T02:25:03,42.805,6.029,-0.031,-0.024,-0.039,108.0,112.0,105.0,13.4,1505.3,327.7,-0.7,1.8,2470.262,13.33,0.039,232.3
2021-02-01T02:28:03,42.805,6.029,-0.023,-0.014,-0.051,109.0,110.0,104.0,13.4,1505.3,327.2,-0.7,1.8,2470.276,13.33,0.026,238.7
2021-02-01T02:31:03,42.805,6.029,-0.041,-0.004,-0.016,109.0,111.0,104.0,13.4,1505.3,322.7,-0.7,1.9,2470.244,13.33,0.041,264.4
2021-02-01T02:34:03,42.805,6.029,0.015,0.004,0.03,109.0,111.0,105.0,13.3,1505.3,324.0,-0.7,1.8,2470.292,13.33,0.015,75.1
2021-02-01T02:37:03,42.805,6.029,-0.008,-0.025,0.029,108.0,111.0,104.0,13.4,1505.3,323.9,-0.7,1.8,2470.27,13.33,0.026,197.7
2021-02-01T02:40:03,42.805,6.029,-0.041,0.009,-0.016,107.0,112.0,104.0,13.4,1505.3,324.1,-0.7,1.8,2470.25,13.33,0.041,282.4
2021-02-01T02:43:03,42.805,6.029,-0.024,-0.014,-0.025,108.0,110.0,104.0,13.4,1505.3,326.0,-0.7,1.9,2470.288,13.33,0.027,239.7
2021-02-01T02:46:03,42.805,6.029,0.006,0.0,-0.001,107.0,109.0,104.0,13.4,1505.3,326.5,-0.7,1.9,2470.238,13.33,0.006,90.0
2021-02-01T02:49:03,42.805,6.029,-0.007,-0.029,-0.016,108.0,109.0,104.0,13.3,1505.3,326.8,-0.7,1.9,2470.249,13.33,0.029,193.6
2021-02-01T02:52:03,42.805,6.029,-0.009,-0.002,-0.036,107.0,110.0,104.0,13.4,1505.3,325.4,-0.7,1.8,2470.241,13.33,0.009,257.5
2021-02-01T02:55:03,42.805,6.029,0.013,-0.019,0.01,107.0,110.0,104.0,13.4,1505.3,327.2,-0.7,1.8,2470.246,13.33,0.023,145.6
2021-02-01T02:58:03,42.805,6.029,-0.011,-0.008,-0.005,108.0,109.0,104.0,13.3,1505.3,326.3,-0.7,1.8,2470.273,13.33,0.013,234.0
2021-02-01T03:04:03,42.805,6.029,-0.029,-0.047,-0.025,108.0,110.0,105.0,13.4,1505.3,325.0,-0.7,1.8,2470.285,13.31,0.055,211.7
2021-02-01T03:07:03,42.805,6.029,-0.019,0.0,-0.003,109.0,110.0,104.0,13.4,1505.3,327.3,-0.7,1.8,2470.236,13.32,0.019,270.0
2021-02-01T03:10:03,42.805,6.029,-0.038,-0.019,-0.046,108.0,110.0,105.0,13.4,1505.3,326.1,-0.7,1.8,2470.232,13.32,0.042,243.4
2021-02-01T03:13:03,42.805,6.029,-0.029,-0.016,0.0,110.0,111.0,104.0,13.4,1505.3,325.0,-0.7,1.8,2470.26,13.33,0.033,241.1
2021-02-01T03:16:03,42.805,6.029,-0.022,-0.005,0.017,107.0,110.0,103.0,13.3,1505.3,327.0,-0.7,1.8,2470.247,13.33,0.022,257.2
2021-02-01T03:19:03,42.805,6.029,-0.025,-0.003,-0.013,107.0,110.0,105.0,13.4,1505.3,325.6,-0.7,1.8,2470.264,13.33,0.025,263.2
2021-02-01T03:22:03,42.805,6.029,-0.011,-0.016,-0.012,108.0,109.0,103.0,13.4,1505.3,325.0,-0.7,1.8,2470.263,13.33,0.019,214.5
2021-02-01T03:25:03,42.805,6.029,-0.011,-0.005,0.004,108.0,109.0,103.0,13.3,1505.3,326.2,-0.7,1.8,2470.232,13.33,0.012,245.6
2021-02-01T03:28:03,42.805,6.029,-0.026,-0.008,-0.022,108.0,108.0,104.0,13.4,1505.3,325.8,-0.7,1.9,2470.264,13.33,0.027,252.9
2021-02-01T03:31:03,42.805,6.029,-0.005,-0.008,-0.001,108.0,109.0,104.0,13.4,1505.3,328.1,-0.7,1.8,2470.271,13.33,0.009,212.0
2021-02-01T03:34:03,42.805,6.029,0.0,-0.019,-0.036,108.0,109.0,104.0,13.4,1505.3,326.1,-0.7,1.8,2470.27,13.33,0.019,180.0
2021-02-01T03:37:03,42.805,6.029,-0.002,-0.034,-0.005,107.0,109.0,104.0,13.4,1505.3,327.2,-0.7,1.9,2470.231,13.33,0.034,183.4
2021-02-01T03:40:03,42.805,6.029,-0.008,-0.02,-0.026,109.0,108.0,103.0,13.4,1505.3,325.9,-0.7,1.8,2470.229,13.33,0.021,201.8
2021-02-01T03:43:03,42.805,6.029,0.001,0.005,0.003,108.0,109.0,104.0,13.4,1505.3,325.6,-0.7,1.8,2470.241,13.33,0.005,11.3
2021-02-01T03:46:03,42.805,6.029,-0.014,-0.009,0.019,109.0,110.0,103.0,13.3,1505.3,324.5,-0.7,1.8,2470.287,13.33,0.016,237.3
2021-02-01T03:49:03,42.805,6.029,-0.008,-0.008,0.01,108.0,110.0,105.0,13.3,1505.3,324.7,-0.7,1.8,2470.264,13.33,0.011,225.0
2021-02-01T03:52:03,42.805,6.029,-0.008,-0.019,0.011,108.0,111.0,103.0,13.4,1505.3,324.0,-0.7,1.8,2470.273,13.33,0.02,202.8
2021-02-01T03:55:03,42.805,6.029,-0.009,0.0,0.014,109.0,110.0,105.0,13.4,1505.3,323.6,-0.7,1.8,2470.25,13.33,0.009,270.0
2021-02-01T03:58:03,42.805,6.029,-0.025,-0.016,-0.03,108.0,111.0,104.0,13.4,1505.3,328.2,-0.7,1.9,2470.259,13.33,0.029,237.4
2021-02-01T04:04:03,42.805,6.029,0.002,-0.012,0.009,110.0,110.0,104.0,13.3,1505.3,326.2,-0.7,1.8,2470.333,13.31,0.012,170.5
2021-02-01T04:07:03,42.805,6.029,0.001,-0.013,-0.007,109.0,110.0,105.0,13.4,1505.3,323.1,-0.7,1.8,2470.27,13.32,0.013,175.6
2021-02-01T04:10:03,42.805,6.029,0.009,0.005,0.034,109.0,110.0,105.0,13.3,1505.3,323.1,-0.7,1.8,2470.27,13.32,0.01,60.9
2021-02-01T04:13:03,42.805,6.029,-0.016,-0.01,0.011,108.0,111.0,104.0,13.3,1505.3,327.6,-0.7,1.8,2470.25,13.32,0.018,238.0
2021-02-01T04:16:03,42.805,6.029,-0.051,-0.003,0.022,108.0,112.0,105.0,13.4,1505.3,327.3,-0.7,1.8,2470.253,13.33,0.051,266.6
2021-02-01T04:19:03,42.805,6.029,-0.031,0.005,0.002,109.0,112.0,104.0,13.4,1505.3,327.3,-0.7,1.8,2470.267,13.33,0.031,279.2
2021-02-01T04:22:03,42.805,6.029,-0.02,-0.021,-0.022,108.0,111.0,105.0,13.4,1505.3,325.0,-0.7,1.9,2470.258,13.33,0.028,223.6
2021-02-01T04:25:03,42.805,6.029,-0.042,-0.024,0.001,109.0,113.0,104.0,13.3,1505.3,326.5,-0.7,1.8,2470.277,13.33,0.048,240.3
2021-02-01T04:28:03,42.805,6.029,-0.006,-0.004,0.0,109.0,111.0,105.0,13.4,1505.3,328.1,-0.7,1.8,2470.258,13.33,0.007,236.3
2021-02-01T04:31:03,42.805,6.029,-0.018,-0.009,-0.019,110.0,112.0,105.0,13.4,1505.3,322.8,-0.7,1.8,2470.257,13.33,0.02,243.4
2021-02-01T04:34:03,42.805,6.029,-0.049,-0.037,-0.018,109.0,112.0,103.0,13.3,1505.3,326.5,-0.7,1.8,2470.272,13.33,0.061,232.9
2021-02-01T04:37:03,42.805,6.029,-0.025,-0.027,-0.021,110.0,110.0,105.0,13.3,1505.3,326.9,-0.7,1.8,2470.268,13.33,0.036,222.8
2021-02-01T04:40:03,42.805,6.029,-0.025,0.007,0.011,109.0,109.0,106.0,13.4,1505.3,324.5,-0.7,1.8,2470.256,13.33,0.025,285.6
2021-02-01T04:43:03,42.805,6.029,-0.004,-0.013,0.032,108.0,112.0,104.0,13.3,1505.3,326.7,-0.7,1.9,2470.266,13.33,0.013,197.1
2021-02-01T04:46:03,42.805,6.029,-0.025,-0.003,0.01,109.0,110.0,105.0,13.4,1505.3,326.0,-0.7,1.8,2470.234,13.33,0.025,263.2
2021-02-01T04:49:03,42.805,6.029,-0.004,-0.019,0.006,108.0,111.0,103.0,13.4,1505.3,327.3,-0.7,1.8,2470.258,13.33,0.019,191.9
2021-02-01T04:52:03,42.805,6.029,-0.044,-0.012,-0.043,108.0,111.0,104.0,13.3,1505.3,323.8,-0.7,1.8,2470.281,13.33,0.045,254.7
2021-02-01T04:55:03,42.805,6.029,-0.019,-0.022,0.043,110.0,110.0,104.0,13.3,1505.3,326.3,-0.7,1.8,2470.275,13.33,0.029,220.8
2021-02-01T04:58:03,42.805,6.029,0.0,-0.01,0.046,108.0,111.0,104.0,13.3,1505.3,325.9,-0.7,1.8,2470.281,13.33,0.01,180.0
2021-02-01T05:04:03,42.805,6.029,-0.023,-0.021,0.008,110.0,110.0,105.0,13.3,1505.3,326.5,-0.7,1.8,2470.328,13.31,0.031,227.6
2021-02-01T05:07:03,42.805,6.029,-0.021,-0.006,0.008,110.0,112.0,105.0,13.4,1505.3,325.3,-0.7,1.8,2470.304,13.32,0.021,254.1
2021-02-01T05:10:03,42.805,6.029,-0.016,0.0,-0.002,110.0,112.0,106.0,13.4,1505.3,327.2,-0.7,1.8,2470.3,13.32,0.016,270.0
2021-02-01T05:13:03,42.805,6.029,-0.019,0.002,-0.016,108.0,113.0,105.0,13.3,1505.3,325.4,-0.7,1.8,2470.329,13.32,0.019,276.0
2021-02-01T05:16:03,42.805,6.029,-0.014,0.004,-0.008,109.0,112.0,106.0,13.3,1505.3,324.2,-0.7,1.8,2470.31,13.33,0.014,285.9
2021-02-01T05:19:03,42.805,6.029,-0.053,-0.003,0.003,109.0,111.0,104.0,13.4,1505.3,323.0,-0.7,1.8,2470.296,13.33,0.053,266.8
2021-02-01T05:22:03,42.805,6.029,-0.023,-0.01,-0.018,109.0,111.0,105.0,13.4,1505.3,325.9,-0.7,1.8,2470.281,13.33,0.025,246.5
2021-02-01T05:25:03,42.805,6.029,-0.039,-0.013,-0.006,110.0,112.0,105.0,13.4,1505.3,324.7,-0.7,1.9,2470.315,13.33,0.041,251.6
2021-02-01T05:28:03,42.805,6.029,-0.024,-0.01,0.01,110.0,110.0,106.0,13.4,1505.3,322.8,-0.6,1.9,2470.275,13.33,0.026,247.4
2021-02-01T05:31:03,42.805,6.029,-0.027,0.006,0.002,109.0,109.0,104.0,13.4,1505.3,327.6,-0.7,1.8,2470.287,13.33,0.027,282.5
2021-02-01T05:34:03,42.805,6.029,-0.006,0.001,0.009,109.0,111.0,106.0,13.4,1505.3,325.6,-0.7,1.8,2470.313,13.33,0.006,279.5
2021-02-01T05:37:03,42.805,6.029,-0.021,-0.016,0.003,109.0,111.0,104.0,13.3,1505.3,326.4,-0.7,1.8,2470.318,13.33,0.026,232.7
2021-02-01T05:40:03,42.805,6.029,-0.038,-0.012,0.015,109.0,110.0,105.0,13.4,1505.3,324.5,-0.7,1.8,2470.302,13.33,0.039,252.5
2021-02-01T05:43:03,42.805,6.029,-0.038,-0.025,0.024,110.0,110.0,106.0,13.3,1505.3,324.4,-0.7,1.8,2470.296,13.33,0.045,236.7
2021-02-01T05:46:03,42.805,6.029,-0.036,-0.003,-0.008,108.0,109.0,105.0,13.3,1505.3,326.8,-0.7,1.8,2470.333,13.33,0.036,265.2
2021-02-01T05:49:03,42.805,6.029,-0.049,-0.005,0.002,108.0,108.0,105.0,13.4,1505.3,326.9,-0.7,1.8,2470.33,13.33,0.049,264.2
2021-02-01T05:52:03,42.805,6.029,-0.046,-0.017,-0.032,108.0,109.0,104.0,13.4,1505.3,326.6,-0.7,1.9,2470.279,13.33,0.049,249.7
2021-02-01T05:55:03,42.805,6.029,-0.06,0.002,-0.026,108.0,109.0,104.0,13.4,1505.3,323.8,-0.7,1.9,2470.305,13.33,0.06,271.9
2021-02-01T05:58:03,42.805,6.029,-0.074,-0.008,-0.007,107.0,108.0,104.0,13.4,1505.3,326.3,-0.7,1.8,2470.312,13.33,0.074,263.8
2021-02-01T06:04:03,42.805,6.029,-0.036,0.007,0.035,108.0,109.0,105.0,13.4,1505.3,324.4,-0.7,1.8,2470.385,13.31,0.036,281.0
2021-02-01T06:07:03,42.805,6.029,-0.03,-0.019,-0.024,109.0,109.0,104.0,13.4,1505.3,325.9,-0.7,1.8,2470.38,13.32,0.035,237.7
2021-02-01T06:10:03,42.805,6.029,-0.028,0.008,0.0,109.0,111.0,104.0,13.4,1505.3,324.9,-0.7,1.9,2470.336,13.32,0.029,285.9
2021-02-01T06:13:03,42.805,6.029,-0.057,-0.008,-0.028,109.0,109.0,104.0,13.4,1505.3,325.3,-0.7,1.8,2470.36,13.32,0.057,262.0
2021-02-01T06:16:03,42.805,6.029,-0.001,0.0,-0.006,108.0,110.0,104.0,13.3,1505.3,326.2,-0.7,1.8,2470.369,13.32,0.001,270.0
2021-02-01T06:19:03,42.805,6.029,-0.031,0.0,-0.019,108.0,111.0,104.0,13.4,1505.3,325.7,-0.7,1.8,2470.42,13.33,0.03,270.0
2021-02-01T06:22:03,42.805,6.029,-0.022,-0.009,-0.002,109.0,111.0,104.0,13.4,1505.3,326.7,-0.7,1.8,2470.379,13.33,0.023,247.8
2021-02-01T06:25:03,42.805,6.029,-0.023,0.0,0.036,109.0,110.0,105.0,13.4,1505.3,324.4,-0.7,1.8,2470.356,13.33,0.023,270.0
2021-02-01T06:28:03,42.805,6.029,-0.023,-0.019,-0.004,109.0,111.0,105.0,13.3,1505.3,326.3,-0.7,1.8,2470.406,13.33,0.029,230.4
2021-02-01T06:31:03,42.805,6.029,-0.017,-0.01,0.012,109.0,110.0,105.0,13.3,1505.3,323.0,-0.7,1.8,2470.366,13.33,0.019,239.5
2021-02-01T06:34:03,42.805,6.029,-0.033,-0.013,-0.006,107.0,112.0,105.0,13.4,1505.3,324.7,-0.7,1.9,2470.344,13.33,0.035,248.5
2021-02-01T06:37:03,42.805,6.029,-0.025,0.009,-0.004,108.0,113.0,103.0,13.4,1505.3,328.0,-0.7,1.8,2470.389,13.33,0.026,289.8
2021-02-01T06:40:03,42.805,6.029,-0.024,-0.002,0.011,108.0,112.0,105.0,13.4,1505.3,325.7,-0.7,1.8,2470.378,13.33,0.024,265.2
2021-02-01T06:43:03,42.805,6.029,-0.02,0.001,-0.002,108.0,109.0,104.0,13.4,1505.3,323.8,-0.7,1.8,2470.367,13.33,0.02,272.9
2021-02-01T06:46:03,42.805,6.029,-0.01,0.003,0.041,109.0,111.0,106.0,13.3,1505.3,323.8,-0.7,1.9,2470.382,13.33,0.01,286.7
2021-02-01T06:49:03,42.805,6.029,-0.026,0.011,-0.004,110.0,111.0,104.0,13.4,1505.3,326.8,-0.7,1.9,2470.382,13.33,0.028,292.9
2021-02-01T06:52:03,42.805,6.029,-0.05,0.013,-0.035,108.0,111.0,105.0,13.3,1505.3,324.7,-0.7,1.9,2470.367,13.33,0.051,284.6
2021-02-01T06:55:03,42.805,6.029,-0.036,-0.003,0.0,109.0,112.0,104.0,13.3,1505.3,325.5,-0.7,1.9,2470.43,13.33,0.036,265.2
2021-02-01T06:58:03,42.805,6.029,-0.023,0.001,0.012,107.0,111.0,104.0,13.4,1505.3,327.5,-0.7,1.8,2470.411,13.33,0.023,272.5
2021-02-01T07:04:03,42.805,6.029,-0.017,-0.006,0.012,108.0,111.0,105.0,13.4,1505.3,327.6,-0.7,1.8,2470.463,13.31,0.018,250.6
2021-02-01T07:07:03,42.805,6.029,-0.01,0.005,0.018,109.0,111.0,104.0,13.4,1505.3,322.6,-0.7,1.8,2470.426,13.32,0.011,296.6
2021-02-01T07:10:03,42.805,6.029,-0.009,-0.004,-0.013,108.0,111.0,104.0,13.4,1505.3,323.4,-0.8,1.8,2470.465,13.32,0.009,246.0
2021-02-01T07:13:03,42.805,6.029,-0.02,0.004,0.004,108.0,111.0,104.0,13.4,1505.3,324.5,-0.7,1.8,2470.447,13.33,0.02,281.3
2021-02-01T07:16:03,42.805,6.029,-0.022,0.017,-0.007,108.0,111.0,104.0,13.3,1505.3,325.9,-0.7,1.8,2470.429,13.33,0.027,307.7
2021-02-01T07:19:03,42.805,6.029,-0.002,0.003,0.001,110.0,111.0,104.0,13.3,1505.3,326.2,-0.7,1.8,2470.453,13.33,0.003,326.3
2021-02-01T07:22:03,42.805,6.029,-0.022,0.012,-0.017,109.0,113.0,104.0,13.4,1505.3,325.3,-0.7,1.8,2470.437,13.33,0.025,298.6
2021-02-01T07:25:03,42.805,6.029,-0.038,0.002,-0.025,109.0,111.0,104.0,13.4,1505.3,325.9,-0.7,1.8,2470.471,13.33,0.038,273.0
2021-02-01T07:28:03,42.805,6.029,-0.035,0.004,-0.006,110.0,111.0,106.0,13.3,1505.3,326.6,-0.7,1.8,2470.431,13.33,0.035,276.5
2021-02-01T07:31:03,42.805,6.029,-0.028,0.031,0.001,108.0,110.0,104.0,13.3,1505.3,326.9,-0.7,1.8,2470.479,13.33,0.041,317.9
2021-02-01T07:34:03,42.805,6.029,-0.027,0.016,0.022,108.0,111.0,104.0,13.4,1505.3,323.5,-0.7,1.8,2470.452,13.33,0.031,300.7
2021-02-01T07:37:03,42.805,6.029,-0.044,0.008,0.005,108.0,110.0,105.0,13.4,1505.3,325.7,-0.7,1.9,2470.452,13.33,0.044,280.3
2021-02-01T07:40:03,42.805,6.029,-0.062,0.028,0.006,109.0,110.0,105.0,13.4,1505.3,325.3,-0.7,1.8,2470.462,13.33,0.068,294.3
2021-02-01T07:43:03,42.805,6.029,-0.025,0.002,0.014,108.0,111.0,105.0,13.4,1505.3,326.1,-0.7,1.9,2470.447,13.33,0.025,274.6
2021-02-01T07:46:03,42.805,6.029,-0.017,0.018,0.009,108.0,111.0,104.0,13.3,1505.3,327.1,-0.7,1.9,2470.474,13.33,0.024,316.6
2021-02-01T07:49:03,42.805,6.029,-0.028,0.007,-0.048,109.0,110.0,104.0,13.4,1505.3,325.9,-0.7,1.8,2470.482,13.33,0.028,284.0
2021-02-01T07:52:03,42.805,6.029,-0.018,0.005,0.014,110.0,111.0,103.0,13.3,1505.3,326.3,-0.7,1.8,2470.466,13.33,0.018,285.5
2021-02-01T07:55:03,42.805,6.029,-0.031,0.012,0.004,109.0,111.0,104.0,13.4,1505.3,323.2,-0.7,1.8,2470.465,13.33,0.033,291.2
2021-02-01T07:58:03,42.805,6.029,-0.031,0.034,-0.008,109.0,111.0,105.0,13.4,1505.3,325.5,-0.7,1.8,2470.446,13.33,0.046,317.6
2021-02-01T08:04:03,42.805,6.029,-0.011,0.004,0.032,107.0,111.0,104.0,13.3,1505.3,327.6,-0.7,1.8,2470.548,13.31,0.011,290.0
2021-02-01T08:07:03,42.805,6.029,0.001,0.013,0.014,108.0,111.0,104.0,13.4,1505.3,325.0,-0.7,1.8,2470.49,13.32,0.013,4.4
2021-02-01T08:10:03,42.805,6.029,-0.033,0.006,-0.002,108.0,111.0,104.0,13.4,1505.3,325.2,-0.7,1.8,2470.516,13.32,0.033,280.3
2021-02-01T08:13:03,42.805,6.029,-0.005,0.004,0.022,108.0,112.0,103.0,13.3,1505.3,326.8,-0.7,1.8,2470.517,13.32,0.006,308.7
2021-02-01T08:16:03,42.805,6.029,0.0,0.007,0.077,108.0,111.0,103.0,13.4,1505.3,323.0,-0.7,1.9,2470.526,13.33,0.007,0.0
2021-02-01T08:19:03,42.805,6.029,-0.038,0.007,-0.005,108.0,111.0,104.0,13.4,1505.3,326.3,-0.7,1.8,2470.533,13.33,0.038,280.4
2021-02-01T08:22:03,42.805,6.029,-0.002,0.006,0.017,108.0,110.0,105.0,13.3,1505.3,323.9,-0.7,1.9,2470.525,13.33,0.006,341.6
2021-02-01T08:25:03,42.805,6.029,-0.022,0.008,0.018,109.0,110.0,102.0,13.3,1505.3,328.2,-0.7,1.8,2470.513,13.33,0.023,290.0
2021-02-01T08:28:03,42.805,6.029,-0.025,0.017,0.013,109.0,111.0,104.0,13.4,1505.3,324.0,-0.7,1.8,2470.525,13.33,0.03,304.2
2021-02-01T08:31:03,42.805,6.029,-0.033,0.01,-0.019,108.0,111.0,104.0,13.3,1505.3,325.2,-0.7,1.8,2470.521,13.33,0.034,286.9
2021-02-01T08:34:03,42.805,6.029,-0.026,-0.002,0.006,109.0,110.0,104.0,13.4,1505.3,324.6,-0.7,1.8,2470.55,13.33,0.026,265.6
2021-02-01T08:37:03,42.805,6.029,0.006,0.009,-0.004,108.0,111.0,105.0,13.3,1505.3,326.6,-0.7,1.8,2470.528,13.33,0.01,33.7
2021-02-01T08:40:03,42.805,6.029,-0.019,0.011,0.011,108.0,110.0,105.0,13.4,1505.3,325.8,-0.7,1.9,2470.498,13.33,0.021,300.1
2021-02-01T08:43:03,42.805,6.029,-0.009,0.009,-0.008,108.0,111.0,104.0,13.4,1505.3,326.7,-0.7,1.8,2470.511,13.33,0.012,315.0
2021-02-01T08:46:03,42.805,6.029,-0.033,0.026,-0.016,107.0,110.0,106.0,13.4,1505.3,326.9,-0.7,1.8,2470.533,13.33,0.042,308.2
2021-02-01T08:49:03,42.805,6.029,-0.02,0.0,0.001,109.0,110.0,105.0,13.3,1505.3,326.3,-0.7,1.8,2470.541,13.33,0.02,270.0
2021-02-01T08:52:03,42.805,6.029,-0.029,0.01,0.005,109.0,112.0,104.0,13.4,1505.3,328.0,-0.7,1.8,2470.532,13.33,0.03,289.0
2021-02-01T08:55:03,42.805,6.029,-0.014,-0.019,-0.01,108.0,111.0,103.0,13.4,1505.3,324.3,-0.7,1.8,2470.525,13.33,0.023,216.4
2021-02-01T08:58:03,42.805,6.029,-0.008,0.019,0.012,108.0,109.0,105.0,13.4,1505.3,324.4,-0.7,1.8,2470.515,13.33,0.02,337.2
2021-02-01T09:04:03,42.805,6.029,-0.04,0.016,0.007,108.0,112.0,104.0,13.4,1505.3,328.4,-0.8,1.8,2470.589,13.31,0.043,291.8
2021-02-01T09:07:03,42.805,6.029,-0.036,-0.013,0.017,108.0,110.0,105.0,13.3,1505.3,324.5,-0.7,1.8,2470.577,13.32,0.038,250.1
2021-02-01T09:10:03,42.805,6.029,-0.005,-0.004,0.02,108.0,110.0,103.0,13.3,1505.3,327.6,-0.7,1.8,2470.573,13.32,0.006,231.3
2021-02-01T09:13:03,42.805,6.029,-0.043,-0.004,-0.012,107.0,112.0,105.0,13.4,1505.3,328.2,-0.7,1.8,2470.574,13.33,0.043,264.7
2021-02-01T09:16:03,42.805,6.029,-0.018,0.005,-0.026,109.0,113.0,104.0,13.4,1505.3,325.4,-0.7,1.8,2470.526,13.33,0.018,285.5
2021-02-01T09:19:03,42.805,6.029,-0.032,0.004,-0.021,110.0,112.0,104.0,13.4,1505.3,323.5,-0.7,1.9,2470.537,13.33,0.032,277.1
2021-02-01T09:22:03,42.805,6.029,-0.032,0.005,0.0,109.0,112.0,104.0,13.4,1505.3,327.8,-0.7,1.9,2470.586,13.33,0.032,278.9
2021-02-01T09:25:03,42.805,6.029,-0.01,0.0,-0.023,109.0,111.0,104.0,13.4,1505.4,326.0,-0.7,1.8,2470.557,13.34,0.01,270.0
2021-02-01T09:28:03,42.805,6.029,-0.036,0.01,-0.033,108.0,111.0,105.0,13.4,1505.4,325.9,-0.7,1.8,2470.524,13.34,0.037,285.5
2021-02-01T09:31:03,42.805,6.029,-0.048,0.004,0.003,109.0,111.0,104.0,13.4,1505.4,327.2,-0.7,1.8,2470.53,13.34,0.048,274.8
2021-02-01T09:34:03,42.805,6.029,-0.018,0.011,0.0,108.0,111.0,105.0,13.4,1505.3,325.3,-0.7,1.8,2470.531,13.33,0.021,301.4
2021-02-01T09:37:03,42.805,6.029,-0.019,0.011,-0.007,108.0,112.0,105.0,13.4,1505.4,324.4,-0.7,1.8,2470.513,13.34,0.021,300.1
2021-02-01T09:40:03,42.805,6.029,-0.014,-0.003,0.004,109.0,111.0,104.0,13.4,1505.3,324.5,-0.7,1.9,2470.58,13.33,0.014,257.9
2021-02-01T09:43:03,42.805,6.029,-0.015,0.007,-0.026,110.0,111.0,103.0,13.4,1505.3,325.9,-0.7,1.8,2470.581,13.33,0.016,295.0
2021-02-01T09:46:03,42.805,6.029,-0.044,0.012,-0.03,109.0,111.0,105.0,13.4,1505.4,326.5,-0.7,1.8,2470.546,13.34,0.045,285.3
2021-02-01T09:49:03,42.805,6.029,-0.026,-0.019,-0.042,108.0,111.0,105.0,13.4,1505.4,327.2,-0.7,1.9,2470.57,13.34,0.032,233.8
2021-02-01T09:52:03,42.805,6.029,0.0,-0.007,0.012,110.0,111.0,105.0,13.3,1505.4,324.2,-0.7,1.8,2470.557,13.34,0.007,180.0
2021-02-01T09:55:03,42.805,6.029,-0.029,0.015,-0.032,107.0,110.0,103.0,13.3,1505.4,323.6,-0.7,1.9,2470.548,13.34,0.032,297.4